星链-1155 (STARLINK-1155 )

导读 | 豆包AI

STARLINK-1155是美国太空探索技术公司星链星座的第1155颗卫星,于2020年1月29日发射升空。它属于星链低轨互联网星座的组成部分,承担提供全球宽带互联网服务的任务,运行在近地轨道,依托星链组网,为偏远地区、海上等场景提供网络接入支持,是星链大规模组网进程中发射的卫星之一。

Basic Information
目录编号:
45053
目录名称:
STARLINK-1155
国际标识:
2020-006K
轨道中心:
EARTH
卫星名称:
星链-1155
卫星全名:
星链-1155 (STARLINK-1155 )
卫星状态:
已陨落 最后检测时间 2024-09-12
发射日期:
2020-01-29 UTC
国别 :
美国 (US)
星等 :
--
Orbit Information
数据来源 国际轨道数据
星历时间: 2024-09-12T14:37:24+0800
轨道信息已过期548天
半长轴: 6584.49km
偏心率: 0.0012236
轨道倾角: 52.969°
近地点辐角 340.853°
升交点赤经 16.793°
平近点角 126.118°
近地点: 198.298km
远地点: 214.412km
周期: 88.622分钟
每日圈数: 16.248735
Detailed Information
固有亮度:
5
最大亮度:
2.5
卫星平台:
Starlink V1.0
覆盖范围:
全球
运营商:
太空探索技术公司
运营商所在国:
美国
制造商(研发单位):
太空探索技术公司
制造商所在国:
美国
使用方式:
暂无
Satellite Introduction
星链(Starlink)计划是由太空探索技术公司(SpaceX)提出的一个巨型低轨卫星互联网星座项目,计划在2019年至2024年间在太空搭建由约1.2万颗卫星组成的“星链”网络,其中1584颗将部署在地球上空550千米处的近地轨道,并从2020年开始工作。该卫星仍在工作。